Location: Bothwell
(42.3833°S, 147.0000°E)
Time: 21:20:31
(UTC+11:00)

First-Move - Pass Details

Date: 04 October 2022
Orbit: 570 x 653 km, 97.7° (Epoch: 25 November)

Event Time Altitude Azimuth Distance (km) Brightness Sun altitude
Exits shadow 03:53:36 49° 110° (ESE) 857 ? -29.3°
Drops below altitude 10° 03:57:59 10° 182° (S) 2,100 ? -28.6°
Enters shadow 05:08:17 -37° 0° (N) 8,588 ? -17.4°
